Location: Arroyo Grande
(40.2671°N, 4.2512°W)
Time: 06:50:48
(UTC+00:00)

RESURS DK-1 - Pass Details

Date: 03 February 2023
Orbit: 549 x 557 km, 69.9° (Epoch: 25 March)

Event Time Altitude Azimuth Distance (km) Brightness Sun altitude
Rises 19:49:40 0° 328° (NNW) 2,738 6.3 -25.4°
Reaches altitude 10° 19:51:57 10° 321° (NW) 1,841 5.4 -25.9°
Maximum altitude 19:55:49 41° 251° (WSW) 817 3.5 -26.6°
Enters shadow 19:56:46 35° 217° (SW) 911 3.6 -26.8°
